Location: Berlín
(1.1027°N, 75.6839°W)
Time: 19:57:53
(UTC+00:00)

Daily predictions for brighter satellites

Satellite Brightness Start Highest point End
(mag) Time Altitude Azimuth Time Altitude Azimuth Time Altitude Azimuth
Spelda 4.3 22:34:33 10° WSW 22:38:48 74° S 23:00:51 10° E
Cosmos 968 Rocket 3.5 23:03:42 10° SSW 23:08:47 86° W 23:13:54 10° N
Landsat 7 3.8 23:09:47 10° SSE 23:14:26 90° WSW 23:19:05 10° NNW
SL-4 R/B 1.9 23:11:03 10° NNW 23:14:38 52° NE 23:18:25 10° SE
SPOT 1/Viking Rocket 4.3 23:10:33 10° SE 23:15:00 30° ENE 23:19:26 10° NNE
SJ-6F 4.3 23:12:39 10° SSE 23:16:32 61° ENE 23:20:22 10° N
Ariane H10-3 3.0 23:16:11 10° NW 23:18:17 25° N 23:21:12 10° ENE
SJ-12 4.0 23:14:30 10° S 23:18:18 73° WSW 23:22:04 10° NNW
Yuri Rocket 3.7 23:12:14 10° WSW 23:18:22 67° NNW 23:22:59 10° NE
ARIANE 5 DEB (SYLDA) 4.2 23:22:35 10° SSW 23:23:32 12° S 23:24:30 10° SSE
Tiangong -1.7 23:21:53 10° NNW 23:24:52 39° NE 23:27:51 10° ESE
SWIFT 2.5 23:27:19 10° SW 23:30:35 43° SSE 23:33:05 15° E
Cosmos 1741 Rocket 4.3 23:25:50 10° SSW 23:31:01 71° WNW 23:36:14 10° N
Cosmos 1833 Rocket 3.8 23:25:49 10° NNW 23:31:11 48° WSW 23:36:35 10° S
RESURS DK-1 2.9 23:29:31 10° N 23:33:04 32° ENE 23:36:37 10° SE
Cosmos 2279 Rocket 4.4 23:29:49 10° SSE 23:35:29 38° E 23:41:06 10° NNE
Cosmos 540 Rocket 3.4 23:32:29 10° N 23:37:31 66° ENE 23:42:32 10° SSE
Delta 2 Rocket 4.4 23:36:52 10° NNW 23:40:06 23° NE 23:41:14 21° ENE
Ariane H10+ 3.4 23:23:17 10° W 23:40:51 69° S 23:43:54 17° E
ARIANE 3 DEB 1.9 23:39:27 10° WNW 23:42:01 44° N 23:42:39 33° NE
SJ-7 4.4 23:39:33 10° SSE 23:43:05 44° E 23:46:36 10° N
Cosmos 1763 Rocket 3.6 23:41:41 10° NNW 23:46:45 75° WSW 23:51:47 10° S
Cosmos 2026 Rocket 4.5 23:43:24 10° NNE 23:49:00 36° E 23:54:39 10° SSE
NOSS 3-2 (A) 4.2 23:47:47 10° SSE 23:51:12 19° ESE 23:51:43 19° ESE
Cosmos 1536 Rocket 3.7 23:49:06 10° N 23:53:26 76° W 23:57:46 10° S
NOAA 6 4.5 23:48:50 10° SE 23:53:34 37° ENE 23:58:17 10° N
